FW1908 Weather Reports


Display with metric or nautical units.
time (UTC)temp
F
wind
direction
speed
MPH
gust
MPH
rain 1hr
in
rain 24hr
in
rain mn
in
humidity
%
barometer
mb
20260504040836 52 249 0.0 0.0 0.00 0.00 0.00 71 1017.8
20260504040107 52 249 0.0 0.0 0.00 0.00 0.00 71 1017.9
20260504035821 52 249 0.0 0.0 0.00 0.00 0.00 71 1017.9
20260504035315 53 249 0.0 0.0 0.00 0.00 0.00 70 1017.8
20260504034550 53 249 0.0 0.0 0.00 0.00 0.00 70 1017.8
20260504034045 53 249 0.0 0.0 0.00 0.00 0.00 69 1017.8
20260504033754 53 249 0.0 0.0 0.00 0.00 0.00 69 1017.9
20260504033033 53 249 0.0 0.0 0.00 0.00 0.00 69 1017.9
20260504032750 53 249 0.0 0.0 0.00 0.00 0.00 68 1017.9
20260504032021 54 249 0.0 0.0 0.00 0.00 0.00 67 1017.9
20260504031514 54 249 0.0 0.0 0.00 0.00 0.00 67 1017.9
20260504031009 54 249 0.0 0.0 0.00 0.00 0.00 67 1017.9
20260504030501 54 249 0.0 0.0 0.00 0.00 0.00 66 1017.9
20260504025956 55 249 0.0 0.0 0.00 0.00 0.00 66 1017.8
20260504025453 55 249 0.0 0.0 0.00 0.00 0.00 65 1017.8
20260504024950 55 249 0.0 0.0 0.00 0.00 0.00 64 1017.7
20260504024448 55 249 0.0 0.0 0.00 0.00 0.00 64 1017.7
20260504023948 56 249 0.0 0.0 0.00 0.00 0.00 63 1017.7
20260504023448 56 249 0.0 1.0 0.00 0.00 0.00 63 1017.6
20260504022949 56 249 0.0 1.0 0.00 0.00 0.00 62 1017.6
20260504022448 56 249 0.0 1.0 0.00 0.00 0.00 61 1017.5
20260504021948 56 249 0.0 0.0 0.00 0.00 0.00 61 1017.5
20260504021448 56 249 0.0 0.0 0.00 0.00 0.00 60 1017.4
20260504020948 57 249 0.0 0.0 0.00 0.00 0.00 60 1017.3
20260504020445 57 249 0.0 0.0 0.00 0.00 0.00 59 1017.2
20260504015945 57 249 0.0 0.0 0.00 0.00 0.00 59 1017.2
20260504015445 58 249 0.0 0.0 0.00 0.00 0.00 58 1017.1
20260504014946 58 249 0.0 0.0 0.00 0.00 0.00 57 1017.1
20260504013946 58 249 0.0 0.0 0.00 0.00 0.00 55 1017.0
20260504013702 59 249 0.0 0.0 0.00 0.00 0.00 55 1016.9
20260504012946 59 249 0.0 0.0 0.00 0.00 0.00 54 1016.8
20260504012444 59 249 0.0 0.0 0.00 0.00 0.00 53 1016.9
20260504012205 60 249 0.0 0.0 0.00 0.00 0.00 52 1016.9
20260504011445 60 249 0.0 0.0 0.00 0.00 0.00 52 1016.8
20260504010943 60 249 0.0 0.0 0.00 0.00 0.00 52 1016.8
20260504010444 61 249 0.0 0.0 0.00 0.00 0.00 51 1016.7
20260504005945 61 249 0.0 0.0 0.00 0.00 0.00 50 1016.6
20260504005444 62 249 0.0 0.0 0.00 0.00 0.00 49 1016.6
20260504004940 62 249 0.0 0.0 0.00 0.00 0.00 49 1016.6
20260504004702 63 249 0.0 0.0 0.00 0.00 0.00 48 1016.6
20260504003939 63 249 0.0 0.0 0.00 0.00 0.00 48 1016.6
20260504003439 63 249 0.0 1.0 0.00 0.00 0.00 46 1016.5
20260504002939 64 249 0.0 1.0 0.00 0.00 0.00 45 1016.5
20260504002441 64 248 0.0 1.0 0.00 0.00 0.00 44 1016.4
20260504001940 65 248 0.0 1.0 0.00 0.00 0.00 44 1016.4
20260504001440 65 248 0.0 1.0 0.00 0.00 0.00 44 1016.3
20260504000940 65 248 0.0 1.0 0.00 0.00 0.00 43 1016.2
20260504000439 65 248 0.0 2.0 0.00 0.00 0.00 43 1016.2
20260504000204 66 248 1.0 2.0 0.00 0.00 0.00 43 1016.2
20260503235439 66 248 0.0 2.0 0.00 0.00 0.00 42 1016.2
20260503234939 66 248 0.0 3.0 0.00 0.00 0.00 42 1016.1
20260503234440 66 248 1.0 3.0 0.00 0.00 0.00 42 1016.2
20260503233940 66 229 1.0 3.0 0.00 0.00 0.00 42 1016.2
20260503233440 67 267 1.0 3.0 0.00 0.00 0.00 41 1016.2
20260503233200 67 267 1.0 4.0 0.00 0.00 0.00 41 1016.2
20260503232439 67 267 2.0 4.0 0.00 0.00 0.00 40 1016.2
20260503231439 67 223 1.0 3.0 0.00 0.00 0.00 41 1016.1
20260503230704 67 224 1.0 5.0 0.00 0.00 0.00 39 1016.2
20260503225937 68 220 1.0 4.0 0.00 0.00 0.00 39 1016.1
20260503225437 68 222 2.0 6.0 0.00 0.00 0.00 38 1016.2
20260503225203 68 220 3.0 7.0 0.00 0.00 0.00 38 1016.2
20260503224438 68 260 3.0 7.0 0.00 0.00 0.00 39 1016.2
20260503223936 68 244 2.0 7.0 0.00 0.00 0.00 38 1016.3
20260503223434 68 304 2.0 5.0 0.00 0.00 0.00 38 1016.3
20260503222933 68 288 3.0 9.0 0.00 0.00 0.00 39 1016.3
20260503222647 68 267 3.0 9.0 0.00 0.00 0.00 37 1016.4
20260503221922 68 302 2.0 5.0 0.00 0.00 0.00 38 1016.4
20260503221422 68 223 2.0 5.0 0.00 0.00 0.00 37 1016.4
20260503220919 68 263 3.0 6.0 0.00 0.00 0.00 38 1016.4
20260503220638 68 298 3.0 6.0 0.00 0.00 0.00 39 1016.4
20260503215918 68 278 3.0 7.0 0.00 0.00 0.00 37 1016.4
20260503215418 68 287 3.0 7.0 0.00 0.00 0.00 40 1016.4
20260503215140 68 162 3.0 9.0 0.00 0.00 0.00 37 1016.5
20260503214415 68 325 5.0 10.0 0.00 0.00 0.00 36 1016.5
20260503213913 68 321 4.0 10.0 0.00 0.00 0.00 36 1016.5
20260503213414 68 294 3.0 6.0 0.00 0.00 0.00 37 1016.5
20260503212913 68 227 3.0 13.0 0.00 0.00 0.00 36 1016.5
20260503212411 68 297 5.0 13.0 0.00 0.00 0.00 36 1016.5
20260503211911 69 256 6.0 12.0 0.00 0.00 0.00 36 1016.6
20260503211412 69 273 5.0 11.0 0.00 0.00 0.00 35 1016.7
20260503210910 69 332 5.0 11.0 0.00 0.00 0.00 35 1016.7
20260503210632 69 270 4.0 11.0 0.00 0.00 0.00 35 1016.7
20260503205910 69 283 4.0 11.0 0.00 0.00 0.00 35 1016.7
20260503205403 69 42 3.0 9.0 0.00 0.00 0.00 34 1016.7
20260503204857 70 312 3.0 7.0 0.00 0.00 0.00 35 1016.8
20260503204351 70 328 3.0 7.0 0.00 0.00 0.00 35 1017.0
20260503203845 70 255 3.0 9.0 0.00 0.00 0.00 34 1017.0
20260503203339 70 283 4.0 9.0 0.00 0.00 0.00 36 1017.2
20260503202833 71 325 3.0 8.0 0.00 0.00 0.00 35 1017.2
20260503202326 71 279 4.0 9.0 0.00 0.00 0.00 35 1017.2
20260503201825 71 279 4.0 9.0 0.00 0.00 0.00 34 1017.3
20260503201325 70 274 4.0 9.0 0.00 0.00 0.00 35 1017.4
20260503201046 71 306 5.0 13.0 0.00 0.00 0.00 32 1017.4
20260503200325 71 244 5.0 13.0 0.00 0.00 0.00 34 1017.4
20260503195825 70 319 4.0 9.0 0.00 0.00 0.00 37 1017.5
20260503195325 70 231 3.0 7.0 0.00 0.00 0.00 35 1017.6
20260503195048 70 279 3.0 9.0 0.00 0.00 0.00 36 1017.6
20260503194326 69 261 3.0 9.0 0.00 0.00 0.00 38 1017.6
20260503193826 69 355 5.0 10.0 0.00 0.00 0.00 36 1017.7
20260503193323 69 342 5.0 11.0 0.00 0.00 0.00 36 1017.9
20260503192823 70 328 4.0 11.0 0.00 0.00 0.00 35 1018.0
20260503192323 70 265 3.0 8.0 0.00 0.00 0.00 35 1018.1
20260503191823 70 274 4.0 8.0 0.00 0.00 0.00 34 1018.2
20260503191323 70 175 4.0 9.0 0.00 0.00 0.00 34 1018.3
20260503190822 70 251 4.0 10.0 0.00 0.00 0.00 37 1018.3
20260503190319 70 242 3.0 10.0 0.00 0.00 0.00 36 1018.4
20260503185818 69 337 3.0 7.0 0.00 0.00 0.00 40 1018.4
20260503185318 69 294 4.0 11.0 0.00 0.00 0.00 35 1018.4
20260503184810 69 206 4.0 11.0 0.00 0.00 0.00 38 1018.5
20260503184528 68 181 5.0 10.0 0.00 0.00 0.00 36 1018.6
20260503184025 68 215 5.0 10.0 0.00 0.00 0.00 38 1018.7
20260503183253 68 338 5.0 10.0 0.00 0.00 0.00 36 1018.7
20260503183019 69 324 4.0 10.0 0.00 0.00 0.00 37 1018.7
20260503182241 69 244 3.0 9.0 0.00 0.00 0.00 39 1018.8
20260503181735 69 313 3.0 13.0 0.00 0.00 0.00 39 1018.9
20260503181229 68 259 4.0 13.0 0.00 0.00 0.00 43 1018.9
20260503180722 69 312 4.0 9.0 0.00 0.00 0.00 37 1019.0
20260503180217 69 331 3.0 9.0 0.00 0.00 0.00 39 1018.9
20260503175711 69 296 5.0 14.0 0.00 0.00 0.00 38 1019.1
20260503175427 68 261 4.0 14.0 0.00 0.00 0.00 42 1019.2
20260503174700 68 289 3.0 10.0 0.00 0.00 0.00 39 1019.2
20260503174152 67 136 4.0 10.0 0.00 0.00 0.00 44 1019.4
20260503173647 67 227 3.0 9.0 0.00 0.00 0.00 40 1019.4
20260503173140 67 321 3.0 9.0 0.00 0.00 0.00 43 1019.5
20260503172129 66 253 4.0 12.0 0.00 0.00 0.00 43 1019.7
20260503171622 66 328 5.0 12.0 0.00 0.00 0.00 42 1019.8
20260503171118 66 273 4.0 12.0 0.00 0.00 0.00 42 1019.8
20260503170610 65 284 5.0 12.0 0.00 0.00 0.00 44 1019.9
20260503170105 66 315 5.0 12.0 0.00 0.00 0.00 41 1020.0
20260503150957 60 322 2.0 8.0 0.00 0.00 0.00 47 1020.9
20260503150457 60 21 2.0 5.0 0.00 0.00 0.00 46 1021.0
20260503130945 46 59 0.0 3.0 0.00 0.02 0.00 93 1020.7
20260503130704 46 55 0.0 0.0 0.00 0.03 0.00 93 1020.7
20260503110439 38 329 0.0 1.0 0.00 0.03 0.00 91 1019.9
20260503090311 39 329 0.0 1.0 0.00 0.08 0.00 90 1018.2
20260503081211 40 329 0.0 0.0 0.00 0.08 0.00 89 1017.7
20260503080706 40 329 0.0 0.0 0.00 0.08 0.00 89 1017.6
20260503080200 40 329 0.0 0.0 0.00 0.08 0.00 89 1017.6
20260503072112 41 329 0.0 0.0 0.00 0.08 0.00 89 1017.2
20260503071823 41 329 0.0 0.0 0.00 0.08 0.00 89 1017.1
20260503071100 42 329 0.0 1.0 0.00 0.08 0.00 89 1017.1
20260503054924 43 329 0.0 0.0 0.00 0.08 0.00 87 1016.8
20260503054418 43 329 0.0 0.0 0.00 0.08 0.00 86 1016.8
20260503053912 43 329 0.0 0.0 0.00 0.08 0.00 86 1016.7
20260503053406 43 329 0.0 0.0 0.00 0.08 0.00 86 1016.7
20260503053123 44 329 0.0 0.0 0.00 0.08 0.00 86 1016.7
20260503052353 44 329 0.0 0.0 0.00 0.08 0.00 86 1016.7
20260503051847 44 329 0.0 0.0 0.00 0.08 0.00 86 1016.6
20260503051342 44 329 0.0 0.0 0.00 0.08 0.00 86 1016.6
20260503050836 44 329 0.0 0.0 0.00 0.08 0.00 86 1016.5
20260503050331 44 329 0.0 0.0 0.00 0.08 0.00 86 1016.5
20260503045824 44 329 0.0 0.0 0.00 0.08 0.00 86 1016.5
20260503045318 44 329 0.0 0.0 0.00 0.08 0.00 85 1016.5
20260503044811 45 329 0.0 1.0 0.00 0.08 0.00 85 1016.5
20260503044538 45 329 0.0 1.0 0.00 0.08 0.00 85 1016.5
20260503044025 45 329 0.0 0.0 0.00 0.08 0.00 85 1016.4
20260503043253 45 329 0.0 1.0 0.00 0.08 0.00 85 1016.3
20260503042748 45 329 0.0 1.0 0.00 0.08 0.00 85 1016.4
20260503042242 45 329 0.0 1.0 0.00 0.08 0.00 85 1016.4
20260503041735 46 329 0.0 2.0 0.00 0.08 0.00 84 1016.3
20260503041453 46 329 0.0 2.0 0.00 0.08 0.00 84 1016.3